Tracking 25710 objects as of 5-Jul-2022
HD Live streaming from Space Station
objects crossing your sky now

STARLINK-2563

Track STARLINK-2563 now!
10-day predictions
STARLINK-2563 is classified as:


NORAD ID: 48410
Int'l Code: 2021-038BK
Perigee: 553.2 km
Apogee: 555.5 km
Inclination: 53.1 °
Period: 95.6 minutes
Semi major axis: 6925 km
RCS: Unknown
Launch date: May 4, 2021
Source: United States (US)
Launch site: AIR FORCE EASTERN TEST RANGE (AFETR)
aabbcc
Your satellite tracking list
Your tracking list is empty




NASA's NSSDC Master Catalog

Two Line Element Set (TLE):
1 48410U 21038BK  22185.49172887 -.00001200  00000-0 -61698-4 0  9994
2 48410  53.0544 210.9711 0001627  51.1859 308.9275 15.06397324 65348
Source of the keplerian elements: AFSPC